Total_Precipitation_Accumulation
0.00 0.00 0.00 0.00 0.00 0.00 0.00 0.00 0.00 0.00 0.00 0.00 0.00 0.00 0.00 0.00 0.00 0.00 0.00 0.00 0.00 0.00 0.00 0.00 0.00 0.00 0.00 0.00 0.00 0.00 0.00 0.00 0.00 0.00 0.00 0.00 0.00 0.00 0.00 0.00 0.00 0.00 0.00 0.00 0.01 0.01 0.01 0.03 0.04 0.04 0.03 0.02 0.02 0.02 0.03 0.05 0.05 0.05 0.20 0.23 0.23 0.19 0.16 0.15 0.11 0.11 0.35 0.59 0.72 0.72 0.81 1.09 0.70 0.70 0.67 0.58 0.58 0.48 0.44 0.34 0.34 0.28 0.09 0.00 0.01 0.01 0.04 0.09 0.13 0.13 0.11 0.01 0.02 0.02 0.06 0.00 0.00 0.01 0.01 0.02 0.02 0.04 0.00
0.00 0.00 0.00 0.00 0.00 0.00 0.00 0.00 0.00 0.00 0.00 0.00 0.00 0.00 0.00 0.00 0.00 0.00 0.00 0.00 0.00 0.00 0.00 0.00 0.00 0.00 0.00 0.00 0.00 0.00 0.00 0.00 0.00 0.00 0.00 0.00 0.00 0.00 0.00 0.00 0.00 0.00 0.00 0.00 0.01 0.01 0.01 0.02 0.03 0.03 0.03 0.03 0.02 0.02 0.02 0.03 0.03 0.05 0.09 0.27 0.27 0.28 0.14 0.17 0.24 0.24 0.39 0.51 0.84 0.84 0.91 1.23 0.94 0.94 0.65 0.56 0.56 0.46 0.45 0.50 0.50 0.34 0.25 0.11 0.08 0.08 0.01 0.05 0.07 0.07 0.11 0.12 0.03 0.03 0.06 0.02 0.02 0.02 0.02 0.03 0.03 0.04 0.03
0.00 0.00 0.00 0.00 0.00 0.00 0.00 0.00 0.00 0.00 0.00 0.00 0.00 0.00 0.00 0.00 0.00 0.00 0.00 0.00 0.00 0.00 0.00 0.00 0.00 0.00 0.00 0.00 0.00 0.00 0.00 0.00 0.00 0.00 0.00 0.00 0.00 0.00 0.00 0.00 0.00 0.00 0.00 0.00 0.01 0.01 0.01 0.01 0.03 0.03 0.06 0.04 0.03 0.03 0.03 0.03 0.03 0.05 0.07 0.28 0.28 0.26 0.30 0.33 0.33 0.33 0.40 0.46 0.85 0.85 0.99 1.18 0.97 0.97 0.77 0.56 0.56 0.49 0.49 0.55 0.55 0.40 0.28 0.19 0.09 0.09 0.06 0.01 0.04 0.04 0.08 0.13 0.08 0.08 0.05 0.03 0.03 0.01 0.02 0.01 0.01 0.04 0.02
0.00 0.00 0.00 0.00 0.00 0.00 0.00 0.00 0.00 0.00 0.00 0.00 0.00 0.00 0.00 0.00 0.00 0.00 0.00 0.00 0.00 0.00 0.00 0.00 0.00 0.00 0.00 0.00 0.00 0.00 0.00 0.00 0.00 0.00 0.00 0.00 0.00 0.00 0.00 0.00 0.00 0.00 0.00 0.02 0.03 0.03 0.04 0.04 0.05 0.05 0.06 0.04 0.04 0.04 0.03 0.04 0.04 0.04 0.06 0.07 0.07 0.14 0.22 0.37 0.47 0.47 0.77 0.69 0.70 0.70 0.92 1.11 1.00 1.00 0.79 0.72 0.72 0.55 0.49 0.59 0.59 0.55 0.35 0.43 0.13 0.13 0.10 0.08 0.05 0.05 0.05 0.13 0.09 0.09 0.14 0.07 0.07 0.05 0.01 0.02 0.02 0.05 0.02
0.00 0.00 0.00 0.00 0.00 0.00 0.00 0.00 0.00 0.00 0.00 0.00 0.00 0.00 0.00 0.00 0.00 0.00 0.00 0.00 0.00 0.00 0.00 0.00 0.00 0.00 0.00 0.01 0.01 0.01 0.01 0.01 0.01 0.01 0.01 0.00 0.00 0.01 0.00 0.01 0.01 0.01 0.01 0.03 0.04 0.04 0.04 0.04 0.05 0.05 0.05 0.05 0.04 0.04 0.04 0.04 0.04 0.05 0.06 0.06 0.06 0.06 0.08 0.17 0.69 0.69 0.84 0.84 0.80 0.80 1.01 1.05 1.08 1.08 0.90 0.87 0.87 0.69 0.61 0.60 0.60 0.56 0.51 0.48 0.38 0.38 0.16 0.22 0.10 0.10 0.07 0.11 0.11 0.11 0.16 0.15 0.15 0.04 0.02 0.03 0.03 0.05 0.05
0.00 0.00 0.00 0.00 0.00 0.00 0.00 0.00 0.00 0.00 0.00 0.01 0.01 0.01 0.01 0.00 0.00 0.00 0.00 0.00 0.00 0.00 0.00 0.00 0.00 0.00 0.01 0.01 0.01 0.01 0.02 0.02 0.02 0.02 0.02 0.02 0.02 0.02 0.01 0.01 0.01 0.01 0.01 0.03 0.04 0.04 0.05 0.05 0.05 0.05 0.04 0.03 0.04 0.04 0.04 0.05 0.05 0.05 0.05 0.05 0.05 0.05 0.05 0.06 0.65 0.65 0.66 0.85 0.90 0.90 0.83 0.95 1.01 1.01 0.93 0.87 0.87 0.85 0.71 0.72 0.72 0.58 0.55 0.59 0.51 0.51 0.45 0.39 0.24 0.24 0.10 0.12 0.13 0.13 0.20 0.17 0.17 0.09 0.02 0.01 0.01 0.06 0.05
0.00 0.00 0.00 0.00 0.00 0.00 0.00 0.00 0.01 0.01 0.01 0.01 0.01 0.01 0.01 0.00 0.00 0.00 0.00 0.00 0.00 0.00 0.00 0.00 0.00 0.00 0.01 0.01 0.01 0.01 0.02 0.02 0.02 0.02 0.02 0.02 0.02 0.02 0.04 0.04 0.04 0.03 0.03 0.06 0.05 0.05 0.06 0.06 0.06 0.06 0.04 0.03 0.03 0.03 0.04 0.04 0.04 0.05 0.05 0.05 0.05 0.04 0.04 0.06 0.16 0.16 0.46 0.64 0.95 0.95 0.91 0.92 0.94 0.94 0.97 0.89 0.89 0.88 0.77 0.77 0.77 0.69 0.60 0.64 0.61 0.61 0.53 0.56 0.31 0.31 0.24 0.24 0.15 0.15 0.16 0.17 0.17 0.11 0.01 0.01 0.01 0.03 0.06
0.00 0.00 0.00 0.00 0.00 0.00 0.00 0.01 0.01 0.01 0.01 0.01 0.00 0.00 0.00 0.00 0.00 0.00 0.00 0.00 0.00 0.00 0.00 0.00 0.00 0.00 0.01 0.01 0.01 0.01 0.01 0.02 0.02 0.02 0.02 0.02 0.02 0.03 0.04 0.05 0.05 0.05 0.05 0.06 0.05 0.05 0.05 0.05 0.05 0.05 0.04 0.03 0.03 0.03 0.03 0.03 0.03 0.04 0.05 0.05 0.05 0.03 0.03 0.20 0.26 0.26 0.37 0.46 0.65 0.65 0.87 0.97 0.92 0.92 0.95 0.94 0.94 0.91 0.87 0.84 0.84 0.74 0.69 0.70 0.70 0.70 0.63 0.63 0.56 0.56 0.30 0.27 0.20 0.20 0.17 0.16 0.16 0.13 0.09 0.01 0.01 0.04 0.05
0.00 0.00 0.00 0.00 0.00 0.00 0.00 0.00 0.00 0.00 0.00 0.00 0.00 0.00 0.00 0.00 0.00 0.00 0.00 0.00 0.00 0.00 0.00 0.00 0.00 0.00 0.00 0.00 0.00 0.00 0.00 0.01 0.01 0.01 0.02 0.02 0.02 0.04 0.04 0.05 0.05 0.05 0.05 0.05 0.05 0.05 0.05 0.05 0.04 0.04 0.04 0.02 0.02 0.02 0.02 0.03 0.03 0.03 0.03 0.04 0.04 0.03 0.02 0.11 0.31 0.31 0.44 0.40 0.54 0.54 0.83 0.92 0.98 0.98 0.92 0.92 0.92 0.89 0.86 0.82 0.82 0.77 0.71 0.70 0.71 0.71 0.70 0.66 0.60 0.60 0.40 0.33 0.25 0.25 0.20 0.15 0.15 0.12 0.10 0.08 0.08 0.04 0.05
0.00 0.00 0.00 0.00 0.00 0.00 0.00 0.00 0.00 0.00 0.00 0.00 0.00 0.00 0.00 0.00 0.00 0.00 0.00 0.00 0.00 0.00 0.00 0.00 0.00 0.00 0.00 0.00 0.00 0.00 0.01 0.01 0.01 0.01 0.02 0.04 0.04 0.05 0.05 0.05 0.05 0.05 0.04 0.05 0.05 0.05 0.05 0.06 0.05 0.05 0.04 0.03 0.02 0.02 0.02 0.03 0.03 0.03 0.03 0.03 0.03 0.03 0.02 0.10 0.39 0.39 0.46 0.50 0.46 0.46 0.62 0.86 0.95 0.95 0.98 1.00 1.00 0.90 0.84 0.77 0.77 0.77 0.70 0.67 0.69 0.69 0.68 0.64 0.61 0.61 0.54 0.31 0.23 0.23 0.21 0.12 0.12 0.07 0.09 0.09 0.09 0.04 0.05
0.00 0.00 0.00 0.00 0.00 0.00 0.00 0.00 0.00 0.00 0.00 0.00 0.00 0.00 0.00 0.00 0.00 0.00 0.00 0.00 0.00 0.00 0.00 0.00 0.00 0.00 0.00 0.00 0.00 0.00 0.01 0.01 0.02 0.02 0.05 0.06 0.06 0.07 0.07 0.05 0.05 0.04 0.03 0.03 0.04 0.04 0.04 0.05 0.03 0.03 0.03 0.03 0.02 0.02 0.02 0.03 0.03 0.03 0.04 0.03 0.03 0.02 0.02 0.09 0.28 0.28 0.44 0.51 0.47 0.47 0.50 0.67 0.86 0.86 0.91 0.99 0.99 0.98 0.88 0.77 0.77 0.72 0.71 0.66 0.66 0.66 0.65 0.60 0.61 0.61 0.53 0.47 0.25 0.25 0.19 0.20 0.20 0.10 0.06 0.08 0.08 0.06 0.08
0.00 0.00 0.00 0.00 0.00 0.00 0.00 0.00 0.00 0.00 0.00 0.00 0.00 0.00 0.00 0.00 0.00 0.00 0.00 0.00 0.00 0.00 0.00 0.00 0.00 0.00 0.00 0.00 0.00 0.00 0.01 0.01 0.03 0.03 0.04 0.05 0.05 0.05 0.04 0.03 0.03 0.03 0.02 0.02 0.02 0.02 0.03 0.03 0.01 0.01 0.02 0.02 0.02 0.02 0.02 0.02 0.02 0.03 0.03 0.03 0.03 0.02 0.02 0.10 0.23 0.23 0.41 0.46 0.48 0.48 0.48 0.56 0.75 0.75 0.81 0.82 0.82 0.98 0.94 0.88 0.88 0.85 0.77 0.70 0.68 0.68 0.66 0.63 0.60 0.60 0.56 0.52 0.41 0.41 0.23 0.21 0.21 0.21 0.10 0.11 0.11 0.06 0.09
0.00 0.00 0.00 0.00 0.00 0.00 0.00 0.00 0.00 0.00 0.00 0.00 0.00 0.00 0.00 0.00 0.00 0.00 0.00 0.00 0.00 0.00 0.00 0.00 0.00 0.00 0.00 0.00 0.00 0.00 0.00 0.01 0.03 0.03 0.02 0.04 0.04 0.04 0.03 0.02 0.02 0.01 0.01 0.01 0.02 0.02 0.02 0.02 0.01 0.01 0.01 0.01 0.02 0.02 0.01 0.01 0.01 0.02 0.03 0.02 0.02 0.02 0.02 0.02 0.22 0.22 0.31 0.37 0.40 0.40 0.38 0.54 0.64 0.64 0.73 0.75 0.75 0.85 0.95 0.90 0.90 0.88 0.88 0.88 0.74 0.74 0.70 0.67 0.63 0.63 0.63 0.55 0.47 0.47 0.34 0.22 0.22 0.19 0.11 0.08 0.08 0.05 0.10
0.00 0.00 0.00 0.00 0.00 0.00 0.00 0.00 0.00 0.00 0.00 0.00 0.00 0.00 0.00 0.00 0.00 0.00 0.00 0.00 0.00 0.00 0.00 0.00 0.00 0.00 0.00 0.00 0.00 0.00 0.01 0.01 0.02 0.02 0.01 0.01 0.01 0.03 0.02 0.01 0.01 0.01 0.01 0.01 0.01 0.01 0.01 0.01 0.01 0.01 0.01 0.01 0.01 0.01 0.01 0.01 0.01 0.01 0.02 0.01 0.01 0.02 0.02 0.06 0.21 0.21 0.28 0.35 0.38 0.38 0.44 0.59 0.65 0.65 0.71 0.68 0.68 0.79 0.91 0.89 0.89 0.89 0.90 0.88 0.83 0.83 0.80 0.80 0.71 0.71 0.67 0.77 0.49 0.49 0.38 0.29 0.29 0.18 0.13 0.08 0.08 0.05 0.01
0.00 0.00 0.00 0.00 0.00 0.00 0.00 0.00 0.00 0.00 0.00 0.00 0.00 0.00 0.00 0.00 0.00 0.00 0.00 0.00 0.00 0.00 0.00 0.00 0.00 0.00 0.00 0.00 0.00 0.00 0.00 0.00 0.00 0.00 0.00 0.00 0.00 0.01 0.01 0.01 0.01 0.01 0.01 0.01 0.01 0.01 0.01 0.01 0.01 0.01 0.01 0.01 0.01 0.01 0.01 0.01 0.01 0.01 0.01 0.01 0.01 0.01 0.02 0.08 0.13 0.13 0.28 0.34 0.40 0.40 0.42 0.49 0.75 0.75 0.76 0.84 0.84 0.77 0.81 0.86 0.86 0.88 0.86 0.87 0.86 0.86 0.83 0.85 0.84 0.84 0.80 0.90 0.77 0.77 0.40 0.32 0.32 0.24 0.12 0.11 0.11 0.04 0.01
0.00 0.00 0.00 0.00 0.00 0.00 0.00 0.00 0.00 0.00 0.00 0.00 0.00 0.00 0.00 0.00 0.00 0.00 0.00 0.00 0.00 0.00 0.00 0.00 0.00 0.00 0.00 0.00 0.00 0.00 0.00 0.00 0.00 0.00 0.00 0.00 0.00 0.00 0.01 0.01 0.01 0.00 0.00 0.01 0.01 0.01 0.01 0.01 0.01 0.01 0.01 0.01 0.01 0.01 0.01 0.01 0.01 0.00 0.01 0.01 0.01 0.01 0.01 0.08 0.14 0.14 0.29 0.34 0.36 0.36 0.37 0.52 0.79 0.79 1.30 1.25 1.25 0.90 0.85 0.90 0.90 0.89 0.86 0.88 0.87 0.87 0.81 0.71 0.78 0.78 0.85 0.90 0.83 0.83 0.63 0.35 0.35 0.29 0.12 0.13 0.13 0.08 0.01
0.00 0.00 0.00 0.00 0.00 0.00 0.00 0.00 0.00 0.00 0.00 0.00 0.00 0.00 0.00 0.00 0.00 0.00 0.00 0.00 0.00 0.00 0.00 0.00 0.00 0.00 0.00 0.00 0.00 0.00 0.00 0.00 0.00 0.00 0.00 0.00 0.00 0.00 0.00 0.00 0.00 0.00 0.00 0.00 0.00 0.00 0.01 0.01 0.01 0.01 0.01 0.01 0.01 0.01 0.01 0.01 0.01 0.00 0.00 0.01 0.01 0.01 0.01 0.07 0.16 0.16 0.22 0.33 0.33 0.33 0.31 0.43 0.76 0.76 1.19 1.37 1.37 1.37 1.00 1.12 1.12 0.94 0.89 0.88 0.89 0.89 0.85 0.76 0.60 0.60 0.74 0.67 0.72 0.72 0.56 0.46 0.46 0.32 0.25 0.13 0.13 0.11 0.05
0.00 0.00 0.00 0.00 0.00 0.00 0.00 0.00 0.00 0.00 0.00 0.00 0.00 0.00 0.00 0.00 0.00 0.00 0.00 0.00 0.00 0.00 0.00 0.00 0.00 0.00 0.00 0.00 0.00 0.00 0.00 0.00 0.00 0.00 0.00 0.00 0.00 0.00 0.00 0.00 0.00 0.00 0.00 0.00 0.00 0.00 0.00 0.00 0.01 0.01 0.01 0.01 0.01 0.01 0.01 0.01 0.01 0.01 0.01 0.01 0.01 0.01 0.01 0.02 0.14 0.14 0.20 0.27 0.33 0.33 0.31 0.35 0.51 0.51 0.60 1.17 1.17 1.36 1.37 1.26 1.26 1.14 0.89 0.93 0.86 0.86 0.90 0.91 0.77 0.77 0.67 0.67 0.63 0.63 0.55 0.48 0.48 0.36 0.31 0.30 0.30 0.13 0.09
0.00 0.00 0.00 0.00 0.00 0.00 0.00 0.00 0.00 0.00 0.00 0.00 0.00 0.00 0.00 0.00 0.00 0.00 0.00 0.00 0.00 0.00 0.00 0.00 0.00 0.00 0.00 0.00 0.00 0.00 0.00 0.00 0.00 0.00 0.00 0.00 0.00 0.00 0.00 0.00 0.00 0.00 0.00 0.00 0.00 0.00 0.00 0.00 0.00 0.00 0.01 0.01 0.01 0.01 0.01 0.01 0.01 0.01 0.01 0.01 0.01 0.02 0.02 0.03 0.09 0.09 0.20 0.26 0.33 0.33 0.32 0.31 0.37 0.37 0.44 0.69 0.69 1.14 1.31 1.28 1.28 1.21 1.13 1.01 0.95 0.95 0.88 0.95 0.86 0.86 0.76 0.75 0.68 0.68 0.58 0.49 0.49 0.47 0.37 0.36 0.36 0.25 0.10
0.00 0.00 0.00 0.00 0.00 0.00 0.00 0.00 0.00 0.00 0.00 0.00 0.00 0.00 0.00 0.00 0.00 0.00 0.00 0.00 0.00 0.00 0.00 0.00 0.00 0.00 0.00 0.00 0.00 0.00 0.00 0.00 0.00 0.00 0.00 0.00 0.00 0.00 0.00 0.00 0.00 0.00 0.00 0.00 0.00 0.00 0.00 0.00 0.00 0.00 0.00 0.00 0.00 0.00 0.00 0.00 0.00 0.00 0.01 0.01 0.01 0.02 0.04 0.06 0.07 0.07 0.10 0.23 0.27 0.27 0.27 0.34 0.32 0.32 0.42 0.51 0.51 0.68 0.95 0.97 0.97 1.15 1.13 1.02 0.96 0.96 0.92 0.87 0.92 0.92 0.96 0.94 0.84 0.84 0.68 0.68 0.68 0.51 0.49 0.43 0.43 0.34 0.31
0.00 0.00 0.00 0.00 0.00 0.00 0.00 0.00 0.00 0.00 0.00 0.00 0.00 0.00 0.00 0.00 0.00 0.00 0.00 0.00 0.00 0.00 0.00 0.00 0.00 0.00 0.00 0.00 0.00 0.00 0.00 0.00 0.00 0.00 0.00 0.00 0.00 0.00 0.00 0.00 0.00 0.00 0.00 0.00 0.00 0.00 0.00 0.00 0.00 0.00 0.00 0.00 0.00 0.00 0.00 0.00 0.00 0.00 0.01 0.01 0.01 0.02 0.03 0.05 0.07 0.07 0.08 0.12 0.19 0.19 0.26 0.32 0.37 0.37 0.44 0.54 0.54 0.63 0.76 0.81 0.81 1.00 1.08 0.97 0.96 0.96 0.92 0.80 0.78 0.78 0.96 0.88 0.97 0.97 0.84 0.88 0.88 0.68 0.52 0.50 0.50 0.38 0.32
0.00 0.00 0.00 0.00 0.00 0.00 0.00 0.00 0.00 0.00 0.00 0.00 0.00 0.00 0.00 0.00 0.00 0.00 0.00 0.00 0.00 0.00 0.00 0.00 0.00 0.00 0.00 0.00 0.00 0.00 0.00 0.00 0.00 0.00 0.00 0.00 0.00 0.00 0.00 0.00 0.00 0.00 0.00 0.00 0.00 0.00 0.00 0.00 0.00 0.00 0.00 0.00 0.00 0.00 0.00 0.00 0.00 0.00 0.00 0.01 0.01 0.02 0.03 0.05 0.07 0.07 0.07 0.10 0.15 0.15 0.23 0.26 0.34 0.34 0.43 0.50 0.50 0.67 0.78 0.89 0.89 0.89 1.00 0.99 0.91 0.91 0.92 0.84 0.76 0.76 0.70 0.69 0.85 0.85 1.05 1.02 1.02 0.94 0.80 0.77 0.77 0.51 0.38
0.00 0.00 0.00 0.00 0.00 0.00 0.00 0.00 0.00 0.00 0.00 0.00 0.00 0.00 0.00 0.00 0.00 0.00 0.00 0.00 0.00 0.00 0.00 0.00 0.00 0.00 0.00 0.00 0.00 0.00 0.00 0.00 0.00 0.00 0.00 0.00 0.00 0.00 0.00 0.00 0.00 0.00 0.00 0.00 0.00 0.00 0.00 0.00 0.00 0.00 0.00 0.00 0.00 0.00 0.00 0.00 0.00 0.00 0.00 0.00 0.00 0.02 0.02 0.03 0.06 0.06 0.06 0.08 0.10 0.10 0.19 0.23 0.26 0.26 0.40 0.52 0.52 0.65 0.82 0.94 0.94 0.91 0.90 0.97 0.82 0.82 0.88 0.92 0.87 0.87 0.71 0.61 0.67 0.67 0.93 0.92 0.92 1.03 1.03 1.10 1.10 0.86 0.62
0.00 0.00 0.00 0.00 0.00 0.00 0.00 0.00 0.00 0.00 0.00 0.00 0.00 0.00 0.00 0.00 0.00 0.00 0.00 0.00 0.00 0.00 0.00 0.00 0.00 0.00 0.00 0.00 0.00 0.00 0.00 0.00 0.00 0.00 0.00 0.00 0.00 0.00 0.00 0.00 0.00 0.00 0.00 0.00 0.00 0.00 0.00 0.00 0.00 0.00 0.00 0.00 0.01 0.01 0.00 0.00 0.00 0.00 0.00 0.00 0.00 0.01 0.01 0.03 0.06 0.06 0.07 0.06 0.08 0.08 0.13 0.23 0.20 0.20 0.27 0.52 0.52 0.65 0.82 0.87 0.87 0.95 0.92 1.04 0.92 0.92 0.92 0.97 1.02 1.02 0.80 0.71 0.58 0.58 0.75 0.75 0.75 0.84 1.02 1.01 1.01 1.13 0.96
0.00 0.00 0.00 0.00 0.00 0.00 0.00 0.00 0.00 0.00 0.00 0.00 0.00 0.00 0.00 0.00 0.00 0.00 0.00 0.00 0.00 0.00 0.00 0.00 0.00 0.00 0.00 0.00 0.00 0.00 0.00 0.00 0.00 0.00 0.00 0.00 0.00 0.00 0.00 0.00 0.00 0.00 0.00 0.00 0.00 0.00 0.00 0.00 0.00 0.00 0.00 0.00 0.01 0.01 0.01 0.01 0.01 0.00 0.00 0.00 0.00 0.00 0.01 0.01 0.05 0.05 0.07 0.09 0.10 0.10 0.10 0.20 0.23 0.23 0.27 0.51 0.51 0.69 0.79 0.85 0.85 0.87 0.91 1.07 0.98 0.98 0.83 0.93 1.04 1.04 1.08 0.84 0.65 0.65 0.54 0.59 0.59 0.65 0.69 0.87 0.87 1.04 1.11
0.00 0.00 0.00 0.00 0.00 0.00 0.00 0.00 0.00 0.00 0.00 0.00 0.00 0.00 0.00 0.00 0.00 0.00 0.00 0.00 0.00 0.00 0.00 0.00 0.00 0.00 0.00 0.00 0.00 0.00 0.00 0.00 0.00 0.00 0.00 0.00 0.00 0.00 0.00 0.00 0.00 0.00 0.00 0.00 0.00 0.00 0.00 0.00 0.00 0.00 0.01 0.00 0.00 0.00 0.00 0.00 0.00 0.00 0.00 0.00 0.00 0.00 0.01 0.01 0.05 0.05 0.07 0.09 0.15 0.15 0.13 0.15 0.25 0.25 0.32 0.38 0.38 0.67 0.78 0.82 0.82 0.80 0.81 0.83 1.05 1.05 0.97 0.97 1.00 1.00 1.08 1.01 0.81 0.81 0.66 0.68 0.68 0.61 0.55 0.45 0.45 0.86 1.02
0.00 0.00 0.00 0.00 0.00 0.00 0.00 0.00 0.00 0.00 0.00 0.00 0.00 0.00 0.00 0.00 0.00 0.00 0.00 0.00 0.00 0.00 0.00 0.00 0.00 0.00 0.00 0.00 0.00 0.00 0.00 0.00 0.00 0.00 0.00 0.00 0.00 0.00 0.00 0.00 0.00 0.00 0.00 0.00 0.00 0.00 0.00 0.00 0.00 0.00 0.00 0.00 0.00 0.00 0.00 0.00 0.00 0.00 0.00 0.00 0.00 0.00 0.01 0.01 0.02 0.02 0.07 0.10 0.14 0.14 0.20 0.19 0.23 0.23 0.40 0.42 0.42 0.54 0.76 0.83 0.83 0.82 0.76 0.76 0.88 0.88 1.02 0.98 0.94 0.94 1.06 1.00 0.88 0.88 0.78 0.85 0.85 0.74 0.57 0.42 0.42 0.48 0.92
0.00 0.00 0.00 0.00 0.00 0.00 0.00 0.00 0.00 0.00 0.00 0.00 0.00 0.00 0.00 0.00 0.00 0.00 0.00 0.00 0.00 0.00 0.00 0.00 0.00 0.00 0.00 0.00 0.00 0.00 0.00 0.00 0.00 0.00 0.00 0.00 0.00 0.00 0.00 0.00 0.00 0.00 0.00 0.00 0.00 0.00 0.00 0.00 0.00 0.00 0.00 0.00 0.00 0.00 0.00 0.00 0.00 0.00 0.00 0.00 0.00 0.00 0.00 0.01 0.02 0.02 0.06 0.10 0.14 0.14 0.17 0.28 0.30 0.30 0.43 0.50 0.50 0.61 0.73 0.88 0.88 0.87 0.78 0.79 0.82 0.82 0.83 0.92 0.92 0.92 0.97 1.01 0.87 0.87 0.89 0.99 0.99 0.98 0.88 0.61 0.61 0.42 0.56
0.00 0.00 0.00 0.00 0.00 0.00 0.00 0.00 0.00 0.00 0.00 0.00 0.00 0.00 0.00 0.00 0.00 0.00 0.00 0.00 0.00 0.00 0.00 0.00 0.00 0.00 0.00 0.00 0.00 0.00 0.00 0.00 0.00 0.00 0.00 0.00 0.00 0.00 0.00 0.00 0.00 0.00 0.00 0.00 0.00 0.00 0.00 0.00 0.00 0.00 0.00 0.00 0.00 0.00 0.00 0.00 0.00 0.00 0.00 0.00 0.00 0.00 0.00 0.00 0.02 0.02 0.05 0.07 0.13 0.13 0.17 0.23 0.40 0.40 0.50 0.60 0.60 0.68 0.79 0.86 0.86 0.91 0.81 0.81 0.89 0.89 0.78 0.67 0.85 0.85 0.97 1.20 0.89 0.89 0.80 0.80 0.80 1.15 1.17 1.26 1.26 0.55 0.50
0.00 0.00 0.00 0.00 0.00 0.00 0.00 0.00 0.00 0.00 0.00 0.00 0.00 0.00 0.00 0.00 0.00 0.00 0.00 0.00 0.00 0.00 0.00 0.00 0.00 0.00 0.00 0.00 0.00 0.00 0.00 0.00 0.00 0.00 0.00 0.00 0.00 0.00 0.00 0.00 0.00 0.00 0.00 0.00 0.00 0.00 0.00 0.00 0.00 0.00 0.00 0.00 0.00 0.00 0.00 0.00 0.00 0.00 0.00 0.00 0.00 0.00 0.00 0.00 0.01 0.01 0.02 0.07 0.11 0.11 0.15 0.20 0.40 0.40 0.49 0.57 0.57 0.76 0.85 0.96 0.96 0.93 0.84 0.82 0.94 0.94 0.80 0.69 0.64 0.64 0.92 1.11 1.27 1.27 0.72 0.63 0.63 0.79 1.32 1.39 1.39 1.20 0.66
0.00 0.00 0.00 0.00 0.00 0.00 0.00 0.00 0.00 0.00 0.00 0.00 0.00 0.00 0.00 0.00 0.00 0.00 0.00 0.00 0.00 0.00 0.00 0.00 0.00 0.00 0.00 0.00 0.00 0.00 0.00 0.00 0.00 0.00 0.00 0.00 0.00 0.00 0.00 0.00 0.00 0.00 0.00 0.00 0.00 0.00 0.00 0.00 0.00 0.00 0.00 0.00 0.00 0.00 0.00 0.00 0.00 0.00 0.00 0.00 0.00 0.00 0.00 0.00 0.00 0.00 0.02 0.04 0.09 0.09 0.14 0.20 0.28 0.28 0.47 0.56 0.56 0.66 0.92 1.02 1.02 1.08 0.81 0.79 0.87 0.87 0.87 0.73 0.55 0.55 0.59 0.86 1.22 1.22 1.05 0.56 0.56 0.58 0.85 1.24 1.24 1.38 1.20
0.00 0.00 0.01 0.01 0.01 0.01 0.00 0.00 0.00 0.00 0.00 0.00 0.00 0.00 0.00 0.00 0.00 0.00 0.00 0.00 0.00 0.00 0.00 0.00 0.00 0.00 0.00 0.00 0.00 0.00 0.00 0.00 0.00 0.00 0.00 0.00 0.00 0.00 0.00 0.00 0.00 0.00 0.00 0.00 0.00 0.00 0.00 0.00 0.00 0.00 0.00 0.00 0.00 0.00 0.00 0.00 0.00 0.00 0.00 0.00 0.00 0.00 0.00 0.00 0.00 0.00 0.01 0.04 0.08 0.08 0.11 0.21 0.27 0.27 0.35 0.55 0.55 0.67 0.82 1.00 1.00 1.11 0.99 0.77 0.83 0.83 0.98 0.85 0.59 0.59 0.44 0.41 0.96 0.96 1.04 0.79 0.79 0.49 0.56 0.60 0.60 1.19 1.38
0.01 0.01 0.01 0.01 0.01 0.01 0.01 0.00 0.00 0.00 0.00 0.00 0.00 0.00 0.00 0.00 0.00 0.00 0.00 0.00 0.00 0.00 0.00 0.00 0.00 0.00 0.00 0.00 0.00 0.00 0.00 0.00 0.00 0.00 0.00 0.00 0.00 0.00 0.00 0.00 0.00 0.00 0.00 0.00 0.00 0.00 0.00 0.00 0.00 0.00 0.00 0.00 0.00 0.00 0.00 0.00 0.00 0.00 0.00 0.00 0.00 0.00 0.00 0.00 0.00 0.00 0.00 0.01 0.07 0.07 0.11 0.14 0.27 0.27 0.35 0.44 0.44 0.66 0.78 0.89 0.89 1.07 0.99 0.78 0.80 0.80 0.97 1.10 0.66 0.66 0.47 0.41 0.47 0.47 0.93 0.76 0.76 0.61 0.46 0.43 0.43 0.62 1.17
0.01 0.01 0.01 0.01 0.01 0.01 0.01 0.00 0.00 0.00 0.00 0.00 0.00 0.00 0.00 0.00 0.00 0.00 0.00 0.00 0.00 0.00 0.00 0.00 0.00 0.00 0.00 0.00 0.00 0.00 0.00 0.00 0.00 0.00 0.00 0.00 0.00 0.00 0.00 0.00 0.00 0.00 0.00 0.00 0.00 0.00 0.00 0.00 0.00 0.00 0.00 0.00 0.00 0.00 0.00 0.00 0.00 0.00 0.00 0.00 0.00 0.00 0.00 0.00 0.00 0.00 0.00 0.00 0.06 0.06 0.10 0.14 0.26 0.26 0.34 0.41 0.41 0.64 0.71 0.84 0.84 0.94 1.00 0.80 0.73 0.73 0.96 1.08 1.09 1.09 0.52 0.44 0.44 0.44 0.50 0.63 0.63 0.59 0.52 0.52 0.52 0.49 0.59
0.01 0.01 0.01 0.01 0.01 0.01 0.01 0.00 0.00 0.00 0.00 0.00 0.00 0.00 0.00 0.00 0.00 0.00 0.00 0.00 0.00 0.00 0.00 0.00 0.00 0.00 0.00 0.00 0.00 0.00 0.00 0.00 0.00 0.00 0.00 0.00 0.00 0.00 0.00 0.00 0.00 0.00 0.00 0.00 0.00 0.00 0.00 0.00 0.00 0.00 0.00 0.00 0.00 0.00 0.00 0.00 0.00 0.00 0.00 0.00 0.00 0.00 0.00 0.00 0.00 0.00 0.00 0.00 0.01 0.01 0.09 0.13 0.19 0.19 0.33 0.40 0.40 0.49 0.60 0.73 0.73 0.87 0.92 0.79 0.71 0.71 0.76 1.05 1.12 1.12 0.89 0.46 0.46 0.46 0.45 0.46 0.46 0.53 0.44 0.41 0.41 0.53 0.56
0.01 0.01 0.01 0.01 0.01 0.01 0.01 0.00 0.00 0.00 0.00 0.00 0.00 0.00 0.00 0.00 0.00 0.00 0.01 0.01 0.01 0.01 0.00 0.00 0.00 0.00 0.00 0.00 0.00 0.00 0.00 0.00 0.00 0.00 0.00 0.00 0.00 0.00 0.00 0.00 0.00 0.00 0.00 0.00 0.00 0.00 0.00 0.00 0.00 0.00 0.00 0.00 0.00 0.00 0.00 0.00 0.00 0.00 0.00 0.00 0.00 0.00 0.00 0.00 0.00 0.00 0.00 0.00 0.01 0.01 0.02 0.13 0.19 0.19 0.26 0.38 0.38 0.47 0.45 0.61 0.61 0.78 0.79 0.75 0.66 0.66 0.67 0.73 1.18 1.18 0.98 0.81 0.45 0.45 0.47 0.47 0.47 0.50 0.42 0.37 0.37 0.43 0.56
0.01 0.01 0.01 0.01 0.01 0.01 0.01 0.01 0.00 0.00 0.00 0.00 0.00 0.00 0.00 0.01 0.01 0.01 0.01 0.01 0.01 0.01 0.01 0.00 0.00 0.00 0.01 0.01 0.02 0.02 0.01 0.01 0.00 0.00 0.00 0.00 0.00 0.00 0.00 0.00 0.00 0.00 0.00 0.00 0.00 0.00 0.00 0.00 0.00 0.00 0.00 0.00 0.00 0.00 0.00 0.00 0.00 0.00 0.00 0.00 0.00 0.00 0.00 0.00 0.00 0.00 0.00 0.00 0.00 0.00 0.01 0.04 0.18 0.18 0.25 0.30 0.30 0.43 0.39 0.42 0.42 0.67 0.66 0.82 0.65 0.65 0.60 0.70 0.93 0.93 1.08 0.88 0.65 0.65 0.50 0.54 0.54 0.51 0.51 0.36 0.36 0.36 0.40
0.01 0.01 0.01 0.01 0.01 0.01 0.01 0.01 0.00 0.00 0.00 0.00 0.00 0.00 0.00 0.01 0.01 0.01 0.01 0.01 0.01 0.01 0.00 0.00 0.01 0.01 0.01 0.01 0.01 0.01 0.00 0.00 0.00 0.00 0.00 0.00 0.00 0.00 0.00 0.00 0.00 0.00 0.00 0.00 0.00 0.00 0.00 0.00 0.00 0.00 0.00 0.00 0.00 0.00 0.00 0.00 0.00 0.00 0.00 0.00 0.00 0.00 0.00 0.00 0.00 0.00 0.00 0.00 0.00 0.00 0.01 0.03 0.17 0.17 0.24 0.29 0.29 0.37 0.34 0.37 0.37 0.41 0.54 0.73 0.66 0.66 0.58 0.64 0.88 0.88 1.09 0.88 0.72 0.72 0.64 0.62 0.62 0.56 0.53 0.49 0.49 0.33 0.32
0.01 0.02 0.01 0.01 0.01 0.01 0.01 0.01 0.00 0.00 0.00 0.00 0.00 0.00 0.00 0.01 0.01 0.01 0.01 0.01 0.01 0.01 0.01 0.01 0.01 0.01 0.01 0.01 0.01 0.01 0.00 0.00 0.00 0.00 0.00 0.00 0.00 0.00 0.00 0.00 0.00 0.00 0.00 0.00 0.00 0.00 0.00 0.00 0.00 0.00 0.00 0.00 0.00 0.00 0.00 0.00 0.00 0.00 0.00 0.00 0.00 0.00 0.00 0.00 0.00 0.00 0.00 0.00 0.00 0.00 0.01 0.02 0.08 0.08 0.24 0.27 0.27 0.37 0.40 0.34 0.34 0.37 0.44 0.61 0.58 0.58 0.50 0.55 0.78 0.78 1.04 1.04 0.79 0.79 0.75 0.79 0.79 0.71 0.58 0.55 0.55 0.47 0.28
0.02 0.02 0.02 0.01 0.01 0.01 0.00 0.00 0.00 0.00 0.00 0.00 0.01 0.01 0.01 0.01 0.01 0.01 0.01 0.01 0.01 0.01 0.01 0.01 0.01 0.01 0.01 0.01 0.01 0.01 0.01 0.00 0.00 0.00 0.00 0.00 0.00 0.00 0.00 0.00 0.00 0.00 0.00 0.00 0.00 0.00 0.00 0.00 0.00 0.00 0.00 0.00 0.00 0.00 0.00 0.00 0.00 0.00 0.00 0.00 0.00 0.00 0.00 0.00 0.00 0.00 0.00 0.00 0.00 0.00 0.00 0.06 0.11 0.11 0.15 0.25 0.25 0.37 0.43 0.30 0.30 0.34 0.41 0.45 0.50 0.50 0.44 0.43 0.73 0.73 1.00 0.99 0.83 0.83 0.85 0.91 0.91 0.85 0.78 0.56 0.56 0.50 0.42
0.03 0.02 0.02 0.01 0.00 0.00 0.00 0.00 0.00 0.00 0.00 0.01 0.01 0.01 0.01 0.01 0.01 0.02 0.01 0.01 0.01 0.01 0.01 0.01 0.02 0.02 0.02 0.01 0.01 0.01 0.01 0.00 0.01 0.01 0.01 0.01 0.01 0.00 0.00 0.00 0.00 0.00 0.00 0.00 0.00 0.00 0.00 0.00 0.00 0.00 0.00 0.00 0.00 0.00 0.00 0.00 0.00 0.00 0.00 0.00 0.00 0.00 0.00 0.00 0.00 0.00 0.00 0.00 0.00 0.00 0.00 0.08 0.13 0.13 0.17 0.21 0.21 0.37 0.48 0.31 0.31 0.31 0.38 0.42 0.51 0.51 0.44 0.36 0.47 0.47 0.98 1.01 0.79 0.79 0.70 0.93 0.93 0.97 0.84 0.83 0.83 0.51 0.44
0.03 0.03 0.02 0.01 0.01 0.01 0.00 0.01 0.01 0.01 0.01 0.01 0.01 0.01 0.02 0.02 0.02 0.02 0.01 0.01 0.01 0.01 0.01 0.01 0.02 0.02 0.02 0.01 0.01 0.01 0.01 0.01 0.01 0.01 0.01 0.01 0.01 0.00 0.00 0.00 0.00 0.00 0.00 0.00 0.00 0.00 0.00 0.00 0.00 0.00 0.00 0.00 0.00 0.00 0.00 0.00 0.00 0.00 0.00 0.00 0.00 0.00 0.00 0.00 0.00 0.00 0.00 0.00 0.01 0.01 0.00 0.03 0.14 0.14 0.18 0.21 0.21 0.20 0.50 0.33 0.33 0.24 0.33 0.38 0.47 0.47 0.44 0.39 0.41 0.41 0.65 0.91 0.84 0.84 0.67 0.67 0.67 1.03 0.98 1.00 1.00 0.74 0.41
0.04 0.04 0.02 0.01 0.01 0.01 0.01 0.01 0.01 0.01 0.01 0.01 0.01 0.01 0.02 0.02 0.02 0.01 0.01 0.02 0.02 0.02 0.01 0.01 0.01 0.01 0.01 0.02 0.02 0.02 0.02 0.01 0.01 0.01 0.00 0.00 0.00 0.00 0.00 0.00 0.00 0.00 0.00 0.00 0.01 0.01 0.02 0.02 0.00 0.00 0.00 0.00 0.00 0.00 0.00 0.00 0.00 0.00 0.00 0.00 0.00 0.00 0.00 0.00 0.00 0.00 0.00 0.01 0.01 0.01 0.01 0.02 0.04 0.04 0.09 0.19 0.19 0.20 0.32 0.51 0.51 0.24 0.19 0.22 0.39 0.39 0.33 0.40 0.39 0.39 0.54 0.79 1.00 1.00 0.93 0.64 0.64 0.62 0.88 0.99 0.99 1.14 0.96
0.04 0.03 0.02 0.02 0.02 0.02 0.02 0.01 0.01 0.01 0.01 0.02 0.02 0.02 0.01 0.01 0.01 0.01 0.01 0.02 0.02 0.02 0.02 0.01 0.01 0.01 0.01 0.02 0.02 0.02 0.02 0.01 0.01 0.01 0.01 0.01 0.01 0.01 0.00 0.00 0.00 0.00 0.00 0.00 0.00 0.00 0.00 0.00 0.00 0.00 0.00 0.00 0.00 0.00 0.00 0.00 0.00 0.00 0.00 0.00 0.00 0.00 0.00 0.00 0.00 0.00 0.01 0.01 0.01 0.01 0.01 0.02 0.03 0.03 0.06 0.11 0.11 0.17 0.28 0.51 0.51 0.43 0.22 0.21 0.23 0.23 0.30 0.33 0.35 0.35 0.41 0.79 0.98 0.98 0.90 0.75 0.75 0.68 0.79 0.93 0.93 1.08 1.15
0.04 0.03 0.03 0.03 0.02 0.02 0.02 0.00 0.01 0.01 0.01 0.02 0.02 0.02 0.02 0.02 0.02 0.02 0.01 0.02 0.02 0.02 0.02 0.01 0.01 0.01 0.01 0.01 0.02 0.02 0.01 0.01 0.01 0.01 0.01 0.01 0.01 0.01 0.01 0.01 0.01 0.00 0.00 0.00 0.00 0.00 0.00 0.00 0.00 0.00 0.00 0.00 0.00 0.00 0.00 0.00 0.00 0.00 0.00 0.00 0.00 0.00 0.01 0.00 0.00 0.00 0.01 0.01 0.01 0.01 0.02 0.02 0.05 0.05 0.08 0.09 0.09 0.14 0.21 0.46 0.46 0.47 0.39 0.22 0.20 0.20 0.28 0.26 0.28 0.28 0.37 0.44 0.98 0.98 0.90 0.70 0.70 0.72 0.83 0.96 0.96 1.04 1.16
0.04 0.03 0.04 0.03 0.03 0.03 0.02 0.00 0.01 0.01 0.01 0.02 0.02 0.02 0.02 0.02 0.02 0.02 0.02 0.02 0.02 0.02 0.02 0.02 0.02 0.02 0.01 0.01 0.01 0.01 0.01 0.01 0.02 0.02 0.02 0.02 0.02 0.02 0.01 0.01 0.01 0.00 0.00 0.00 0.00 0.00 0.00 0.00 0.00 0.00 0.00 0.00 0.00 0.00 0.00 0.00 0.00 0.00 0.00 0.00 0.00 0.00 0.01 0.01 0.01 0.01 0.01 0.01 0.01 0.01 0.01 0.01 0.02 0.02 0.09 0.12 0.12 0.17 0.19 0.35 0.35 0.47 0.39 0.30 0.21 0.21 0.26 0.22 0.21 0.21 0.29 0.40 0.64 0.64 0.93 0.74 0.74 0.69 0.73 1.05 1.05 1.06 1.12
0.04 0.03 0.04 0.03 0.02 0.02 0.01 0.01 0.01 0.01 0.02 0.02 0.02 0.02 0.02 0.02 0.02 0.02 0.02 0.02 0.02 0.03 0.02 0.02 0.03 0.03 0.02 0.02 0.02 0.02 0.02 0.03 0.03 0.03 0.04 0.03 0.03 0.03 0.02 0.01 0.01 0.00 0.00 0.00 0.00 0.00 0.00 0.00 0.00 0.00 0.00 0.00 0.00 0.00 0.00 0.00 0.00 0.00 0.01 0.01 0.01 0.01 0.01 0.01 0.01 0.01 0.01 0.01 0.02 0.02 0.01 0.02 0.03 0.03 0.06 0.14 0.14 0.17 0.19 0.18 0.18 0.43 0.40 0.33 0.23 0.23 0.27 0.23 0.17 0.17 0.20 0.39 0.59 0.59 0.96 0.96 0.96 0.73 0.66 0.74 0.74 1.01 1.12
0.04 0.04 0.04 0.03 0.02 0.02 0.01 0.01 0.02 0.02 0.02 0.02 0.03 0.03 0.02 0.02 0.02 0.02 0.02 0.03 0.03 0.03 0.03 0.03 0.05 0.05 0.05 0.04 0.03 0.03 0.03 0.03 0.03 0.03 0.06 0.05 0.05 0.03 0.01 0.00 0.00 0.00 0.00 0.00 0.00 0.00 0.00 0.00 0.00 0.00 0.00 0.00 0.00 0.00 0.00 0.00 0.00 0.00 0.01 0.02 0.02 0.02 0.01 0.01 0.01 0.01 0.01 0.02 0.03 0.03 0.02 0.02 0.02 0.02 0.05 0.08 0.08 0.16 0.20 0.18 0.18 0.23 0.37 0.36 0.27 0.27 0.33 0.24 0.19 0.19 0.19 0.26 0.54 0.54 0.89 0.96 0.96 0.82 0.67 0.73 0.73 0.89 0.97
0.04 0.04 0.04 0.02 0.02 0.02 0.01 0.01 0.02 0.02 0.02 0.03 0.03 0.03 0.02 0.02 0.02 0.02 0.02 0.02 0.02 0.05 0.06 0.06 0.06 0.06 0.07 0.06 0.04 0.04 0.02 0.01 0.02 0.02 0.07 0.08 0.08 0.04 0.01 0.00 0.00 0.00 0.00 0.00 0.00 0.00 0.00 0.00 0.00 0.00 0.00 0.00 0.00 0.00 0.00 0.00 0.00 0.00 0.01 0.03 0.03 0.03 0.02 0.01 0.01 0.01 0.01 0.02 0.03 0.03 0.03 0.02 0.04 0.04 0.05 0.06 0.06 0.08 0.14 0.19 0.19 0.19 0.24 0.41 0.37 0.37 0.51 0.42 0.21 0.21 0.19 0.24 0.34 0.34 0.83 0.94 0.94 0.83 0.83 0.79 0.79 0.85 0.84
0.04 0.04 0.04 0.03 0.02 0.02 0.02 0.02 0.02 0.02 0.03 0.02 0.02 0.02 0.02 0.02 0.02 0.02 0.02 0.03 0.03 0.04 0.10 0.10 0.08 0.08 0.08 0.07 0.03 0.03 0.01 0.01 0.02 0.02 0.06 0.07 0.07 0.05 0.02 0.01 0.01 0.00 0.00 0.00 0.00 0.00 0.00 0.00 0.00 0.00 0.00 0.00 0.00 0.00 0.00 0.00 0.00 0.00 0.00 0.04 0.04 0.04 0.03 0.02 0.01 0.01 0.01 0.01 0.03 0.03 0.03 0.03 0.04 0.04 0.09 0.07 0.07 0.10 0.13 0.18 0.18 0.18 0.25 0.29 0.54 0.54 0.77 0.67 0.48 0.48 0.25 0.26 0.31 0.31 0.50 0.88 0.88 0.84 0.84 0.82 0.82 0.83 0.78
0.04 0.04 0.04 0.03 0.03 0.03 0.02 0.02 0.03 0.03 0.03 0.03 0.03 0.03 0.03 0.03 0.03 0.03 0.02 0.04 0.04 0.04 0.12 0.11 0.08 0.08 0.07 0.07 0.03 0.03 0.01 0.01 0.03 0.03 0.08 0.04 0.04 0.04 0.04 0.06 0.06 0.02 0.00 0.00 0.00 0.00 0.00 0.00 0.00 0.00 0.00 0.00 0.00 0.00 0.00 0.00 0.00 0.00 0.00 0.01 0.01 0.05 0.04 0.03 0.02 0.02 0.02 0.01 0.02 0.02 0.04 0.03 0.05 0.05 0.08 0.10 0.10 0.11 0.15 0.18 0.18 0.23 0.28 0.34 0.60 0.60 0.88 0.82 0.81 0.81 0.64 0.29 0.33 0.33 0.48 0.74 0.74 0.81 0.85 0.77 0.77 0.88 0.85
0.03 0.04 0.03 0.03 0.03 0.03 0.03 0.04 0.04 0.04 0.04 0.04 0.04 0.04 0.04 0.04 0.04 0.04 0.03 0.05 0.05 0.05 0.10 0.12 0.09 0.09 0.06 0.05 0.03 0.03 0.02 0.01 0.02 0.02 0.05 0.06 0.06 0.02 0.04 0.08 0.08 0.09 0.01 0.00 0.00 0.00 0.00 0.00 0.00 0.00 0.00 0.00 0.00 0.00 0.00 0.00 0.00 0.00 0.00 0.02 0.02 0.05 0.05 0.04 0.04 0.04 0.03 0.02 0.02 0.02 0.02 0.03 0.04 0.04 0.07 0.13 0.13 0.12 0.13 0.18 0.18 0.20 0.33 0.39 0.59 0.59 0.83 0.88 0.87 0.87 0.87 0.52 0.39 0.39 0.44 0.70 0.70 0.81 0.78 0.76 0.76 0.91 0.87
0.03 0.02 0.03 0.03 0.04 0.04 0.04 0.04 0.04 0.04 0.04 0.06 0.07 0.07 0.06 0.05 0.05 0.04 0.05 0.06 0.06 0.06 0.07 0.10 0.11 0.11 0.09 0.05 0.04 0.04 0.02 0.01 0.01 0.01 0.02 0.04 0.04 0.05 0.08 0.08 0.08 0.08 0.03 0.02 0.01 0.01 0.00 0.00 0.00 0.00 0.00 0.01 0.00 0.00 0.00 0.00 0.00 0.00 0.00 0.05 0.05 0.07 0.06 0.06 0.05 0.05 0.06 0.03 0.02 0.02 0.02 0.03 0.04 0.04 0.06 0.10 0.10 0.10 0.13 0.15 0.15 0.20 0.29 0.45 0.64 0.64 0.90 0.86 0.87 0.87 0.94 0.76 0.55 0.55 0.45 0.66 0.66 0.85 0.82 0.83 0.83 0.83 0.81
0.01 0.01 0.02 0.02 0.04 0.04 0.05 0.05 0.04 0.04 0.04 0.07 0.09 0.09 0.08 0.06 0.06 0.05 0.05 0.07 0.07 0.07 0.09 0.09 0.12 0.12 0.11 0.08 0.04 0.04 0.02 0.01 0.01 0.01 0.02 0.03 0.03 0.09 0.10 0.07 0.07 0.05 0.04 0.07 0.03 0.03 0.01 0.00 0.00 0.00 0.01 0.01 0.02 0.02 0.01 0.01 0.01 0.00 0.01 0.07 0.07 0.08 0.07 0.07 0.07 0.07 0.06 0.05 0.03 0.03 0.03 0.03 0.04 0.04 0.07 0.08 0.08 0.08 0.11 0.17 0.17 0.27 0.28 0.35 0.75 0.75 0.95 0.86 0.85 0.85 0.84 0.96 0.77 0.77 0.62 0.60 0.60 0.84 0.84 0.87 0.87 0.78 0.81
0.01 0.01 0.01 0.02 0.04 0.04 0.05 0.05 0.04 0.04 0.03 0.06 0.11 0.11 0.09 0.06 0.06 0.06 0.06 0.07 0.07 0.08 0.10 0.11 0.11 0.11 0.12 0.09 0.04 0.04 0.03 0.01 0.01 0.01 0.03 0.03 0.03 0.08 0.09 0.08 0.08 0.07 0.05 0.08 0.05 0.05 0.01 0.00 0.01 0.01 0.00 0.02 0.03 0.03 0.02 0.01 0.01 0.01 0.01 0.09 0.09 0.09 0.09 0.10 0.08 0.08 0.06 0.04 0.04 0.04 0.03 0.03 0.04 0.04 0.05 0.09 0.09 0.09 0.09 0.13 0.13 0.29 0.35 0.42 0.50 0.50 0.74 0.83 0.83 0.83 0.87 0.95 0.97 0.97 1.08 0.84 0.84 0.78 0.87 0.86 0.86 0.75 0.75
0.01 0.01 0.02 0.03 0.04 0.04 0.05 0.05 0.04 0.04 0.04 0.07 0.12 0.12 0.13 0.07 0.07 0.06 0.05 0.07 0.07 0.09 0.11 0.12 0.08 0.08 0.10 0.09 0.08 0.08 0.05 0.03 0.02 0.02 0.02 0.02 0.02 0.03 0.06 0.15 0.15 0.13 0.10 0.05 0.03 0.03 0.01 0.02 0.03 0.03 0.01 0.02 0.02 0.02 0.01 0.02 0.02 0.01 0.03 0.18 0.18 0.10 0.10 0.09 0.10 0.10 0.06 0.04 0.04 0.04 0.04 0.04 0.04 0.04 0.06 0.07 0.07 0.10 0.10 0.13 0.13 0.17 0.34 0.47 0.58 0.58 0.69 0.80 0.84 0.84 0.79 0.88 1.01 1.01 1.19 1.11 1.11 0.97 0.97 1.00 1.00 0.75 0.68
0.01 0.01 0.02 0.02 0.03 0.03 0.05 0.05 0.05 0.05 0.05 0.09 0.14 0.14 0.12 0.06 0.06 0.06 0.07 0.08 0.08 0.10 0.10 0.11 0.07 0.07 0.06 0.07 0.10 0.10 0.08 0.05 0.02 0.02 0.01 0.02 0.02 0.04 0.07 0.12 0.12 0.13 0.14 0.10 0.09 0.09 0.03 0.09 0.20 0.20 0.04 0.04 0.07 0.07 0.02 0.00 0.00 0.03 0.12 0.26 0.26 0.19 0.09 0.12 0.10 0.10 0.09 0.06 0.05 0.05 0.05 0.04 0.05 0.05 0.06 0.07 0.07 0.08 0.09 0.10 0.10 0.12 0.20 0.33 0.67 0.67 0.69 0.69 0.74 0.74 0.59 0.73 0.91 0.91 0.92 1.14 1.14 1.23 1.12 1.14 1.14 1.04 0.67
0.01 0.01 0.01 0.01 0.02 0.02 0.05 0.05 0.05 0.05 0.05 0.12 0.14 0.14 0.11 0.06 0.06 0.07 0.08 0.09 0.09 0.09 0.09 0.09 0.10 0.10 0.05 0.06 0.09 0.09 0.10 0.06 0.02 0.02 0.02 0.02 0.02 0.06 0.07 0.08 0.08 0.07 0.13 0.12 0.13 0.13 0.19 0.25 0.33 0.33 0.17 0.05 0.02 0.02 0.05 0.02 0.02 0.05 0.18 0.29 0.29 0.27 0.12 0.12 0.12 0.12 0.10 0.09 0.06 0.06 0.06 0.05 0.04 0.04 0.06 0.07 0.07 0.08 0.08 0.09 0.09 0.17 0.19 0.29 0.51 0.51 0.71 0.66 0.65 0.65 0.54 0.52 0.67 0.67 0.67 0.99 0.99 1.33 1.34 1.31 1.31 1.19 0.93
0.01 0.01 0.01 0.01 0.01 0.01 0.03 0.04 0.04 0.04 0.06 0.13 0.13 0.13 0.08 0.06 0.06 0.07 0.09 0.10 0.10 0.08 0.08 0.09 0.09 0.09 0.06 0.08 0.11 0.11 0.12 0.07 0.05 0.05 0.04 0.05 0.05 0.03 0.04 0.06 0.06 0.07 0.09 0.09 0.10 0.10 0.20 0.33 0.35 0.35 0.32 0.11 0.00 0.00 0.02 0.04 0.04 0.02 0.20 0.34 0.34 0.37 0.26 0.15 0.13 0.13 0.12 0.10 0.09 0.09 0.07 0.06 0.04 0.04 0.04 0.07 0.07 0.11 0.08 0.09 0.09 0.20 0.26 0.37 0.57 0.57 0.70 0.66 0.61 0.61 0.46 0.40 0.38 0.38 0.53 0.77 0.77 1.13 1.48 1.55 1.55 1.32 1.08
0.01 0.01 0.01 0.00 0.00 0.00 0.02 0.03 0.04 0.04 0.06 0.13 0.11 0.11 0.06 0.05 0.05 0.07 0.09 0.09 0.09 0.08 0.08 0.08 0.07 0.07 0.07 0.09 0.12 0.12 0.12 0.10 0.05 0.05 0.06 0.06 0.06 0.03 0.02 0.04 0.04 0.05 0.06 0.07 0.08 0.08 0.20 0.34 0.38 0.38 0.37 0.27 0.13 0.13 0.00 0.01 0.01 0.07 0.17 0.36 0.36 0.46 0.34 0.22 0.14 0.14 0.11 0.10 0.09 0.09 0.08 0.07 0.06 0.06 0.04 0.05 0.05 0.11 0.11 0.08 0.08 0.10 0.23 0.49 0.67 0.67 0.75 0.76 0.62 0.62 0.46 0.38 0.33 0.33 0.44 0.66 0.66 0.92 1.36 1.62 1.62 1.76 1.25
0.01 0.01 0.01 0.01 0.01 0.01 0.01 0.02 0.03 0.03 0.06 0.11 0.09 0.09 0.05 0.05 0.05 0.07 0.09 0.09 0.09 0.07 0.06 0.06 0.06 0.06 0.06 0.09 0.11 0.11 0.11 0.09 0.03 0.03 0.06 0.07 0.07 0.04 0.02 0.04 0.04 0.04 0.04 0.05 0.17 0.17 0.30 0.35 0.47 0.47 0.41 0.34 0.21 0.21 0.10 0.02 0.02 0.10 0.28 0.38 0.38 0.54 0.37 0.26 0.21 0.21 0.11 0.09 0.09 0.09 0.08 0.07 0.08 0.08 0.06 0.06 0.06 0.07 0.14 0.10 0.10 0.13 0.28 0.49 0.69 0.69 0.68 0.73 0.76 0.76 0.63 0.38 0.37 0.37 0.44 0.54 0.54 0.64 1.14 1.54 1.54 1.82 1.75